EAA YSBK-YSTW

Flight info

Callsign EAA
Flight time 0h 53m
Altitude 26000
Route BK DCT RIC H76 EMSUR Z127 LALIB W183 TW
Aircraft PC12/L-SDFGRWYZ/EB1

Departure

Time 2026-04-27 05:25
Airport Sydney Bankstown Airport (YSBK)

Arrival

Time 2026-04-27 06:18
Airport Tamworth Airport (YSTW)
Time Latitude Longitude Altitude Speed Heading
2026-04-27 05:14 -33.91818 150.98940 33 ft 0 kts 150°
2026-04-27 05:21 -33.91824 150.98945 32 ft 4 kts 149°
2026-04-27 05:21 -33.91867 150.98945 33 ft 8 kts 184°
2026-04-27 05:21 -33.91929 150.98967 33 ft 11 kts 150°
2026-04-27 05:21 -33.92000 150.98963 34 ft 12 kts 217°
2026-04-27 05:22 -33.92058 150.98905 33 ft 8 kts 268°
2026-04-27 05:22 -33.92026 150.98836 33 ft 11 kts 304°
2026-04-27 05:22 -33.91984 150.98760 32 ft 12 kts 303°
2026-04-27 05:22 -33.91925 150.98691 31 ft 13 kts
2026-04-27 05:23 -33.91865 150.98622 31 ft 13 kts 304°
2026-04-27 05:23 -33.91835 150.98519 31 ft 11 kts 259°
2026-04-27 05:23 -33.91898 150.98492 32 ft 11 kts 178°
2026-04-27 05:23 -33.91973 150.98493 33 ft 11 kts 180°
2026-04-27 05:24 -33.92025 150.98481 35 ft 5 kts 165°
2026-04-27 05:24 -33.92036 150.98493 35 ft 1 kts 121°
2026-04-27 05:24 -33.92050 150.98521 34 ft 12 kts 121°
2026-04-27 05:24 -33.92197 150.98786 34 ft 66 kts 124°
2026-04-27 05:25 -33.92528 150.99366 72 ft 96 kts 123°
2026-04-27 05:25 -33.92936 151.00054 346 ft 105 kts 124°
2026-04-27 05:25 -33.93278 151.00802 727 ft 103 kts 101°
2026-04-27 05:25 -33.93087 151.01644 1014 ft 117 kts 50°
2026-04-27 05:26 -33.92257 151.01883 1279 ft 143 kts 342°
2026-04-27 05:26 -33.91577 151.00984 1700 ft 150 kts 298°
2026-04-27 05:26 -33.90842 150.99551 2522 ft 160 kts 302°
2026-04-27 05:26 -33.90439 150.98763 2889 ft 164 kts 302°
2026-04-27 05:27 -33.89839 150.97574 3483 ft 169 kts 302°
2026-04-27 05:27 -33.89224 150.96355 4024 ft 171 kts 303°
2026-04-27 05:27 -33.88605 150.95129 4623 ft 172 kts 302°
2026-04-27 05:27 -33.87933 150.93944 5175 ft 172 kts 320°
2026-04-27 05:28 -33.86867 150.93294 5692 ft 174 kts 339°
2026-04-27 05:28 -33.85732 150.92747 6234 ft 177 kts 336°
2026-04-27 05:28 -33.84600 150.92126 6770 ft 181 kts 333°
2026-04-27 05:28 -33.83468 150.91465 7297 ft 181 kts 333°
2026-04-27 05:29 -33.82333 150.90801 7841 ft 182 kts 334°
2026-04-27 05:29 -33.81192 150.90136 8390 ft 182 kts 334°
2026-04-27 05:29 -33.80048 150.89470 8945 ft 183 kts 334°
2026-04-27 05:29 -33.78897 150.88799 9493 ft 184 kts 334°
2026-04-27 05:30 -33.77760 150.88137 10031 ft 185 kts 334°
2026-04-27 05:30 -33.76600 150.87462 10522 ft 186 kts 334°
2026-04-27 05:30 -33.75428 150.86779 10980 ft 189 kts 334°
2026-04-27 05:30 -33.74187 150.86058 11238 ft 204 kts 334°
2026-04-27 05:31 -33.72912 150.85317 11803 ft 203 kts 334°
2026-04-27 05:31 -33.71634 150.84573 12319 ft 206 kts 334°
2026-04-27 05:31 -33.70340 150.83821 12843 ft 208 kts 334°
2026-04-27 05:31 -33.69033 150.83061 13358 ft 210 kts 334°
2026-04-27 05:32 -33.67711 150.82294 13866 ft 212 kts 334°
2026-04-27 05:32 -33.66382 150.81521 14250 ft 213 kts 334°
2026-04-27 05:32 -33.65039 150.80742 14530 ft 215 kts 334°
2026-04-27 05:32 -33.63693 150.79961 14841 ft 215 kts 334°
2026-04-27 05:33 -33.62341 150.79176 15172 ft 216 kts 334°
2026-04-27 05:33 -33.60984 150.78388 15580 ft 217 kts 335°
2026-04-27 05:33 -33.59616 150.77625 16047 ft 217 kts 341°
2026-04-27 05:33 -33.58152 150.77156 16479 ft 219 kts 347°
2026-04-27 05:34 -33.56672 150.76727 16958 ft 219 kts 347°
2026-04-27 05:34 -33.55186 150.76288 17427 ft 221 kts 347°
2026-04-27 05:34 -33.53693 150.75841 17914 ft 222 kts 347°
2026-04-27 05:34 -33.52191 150.75392 18387 ft 223 kts 347°
2026-04-27 05:35 -33.50683 150.74942 18823 ft 224 kts 347°
2026-04-27 05:35 -33.49164 150.74489 19148 ft 226 kts 347°
2026-04-27 05:35 -33.47634 150.74033 19406 ft 228 kts 347°
2026-04-27 05:35 -33.46091 150.73572 19678 ft 229 kts 347°
2026-04-27 05:36 -33.44539 150.73109 19956 ft 230 kts 347°
2026-04-27 05:36 -33.42982 150.72644 20233 ft 232 kts 347°
2026-04-27 05:36 -33.41412 150.72176 20503 ft 233 kts 347°
2026-04-27 05:36 -33.39835 150.71706 20768 ft 234 kts 347°
2026-04-27 05:37 -33.38250 150.71234 21028 ft 235 kts 347°
2026-04-27 05:37 -33.36654 150.70758 21268 ft 237 kts 347°
2026-04-27 05:37 -33.35053 150.70282 21539 ft 238 kts 347°
2026-04-27 05:37 -33.33442 150.69802 21802 ft 239 kts 347°
2026-04-27 05:38 -33.31822 150.69319 22061 ft 241 kts 347°
2026-04-27 05:38 -33.30190 150.68834 22315 ft 242 kts 346°
2026-04-27 05:38 -33.28553 150.68348 22574 ft 243 kts 346°
2026-04-27 05:38 -33.26909 150.67859 22834 ft 244 kts 346°
2026-04-27 05:39 -33.25255 150.67368 23087 ft 246 kts 346°
2026-04-27 05:39 -33.23591 150.66874 23345 ft 247 kts 346°
2026-04-27 05:39 -33.21918 150.66377 23603 ft 248 kts 346°
2026-04-27 05:39 -33.20239 150.65878 23847 ft 250 kts 346°
2026-04-27 05:40 -33.18548 150.65377 24063 ft 251 kts 346°
2026-04-27 05:40 -33.16851 150.64873 24273 ft 252 kts 346°
2026-04-27 05:40 -33.15144 150.64368 24486 ft 253 kts 346°
2026-04-27 05:40 -33.13430 150.63860 24694 ft 254 kts 346°
2026-04-27 05:41 -33.11710 150.63350 24909 ft 255 kts 346°
2026-04-27 05:41 -33.09980 150.62838 25104 ft 257 kts 346°
2026-04-27 05:41 -33.08243 150.62324 25298 ft 258 kts 346°
2026-04-27 05:41 -33.06498 150.61808 25491 ft 259 kts 346°
2026-04-27 05:42 -33.04746 150.61290 25697 ft 260 kts 346°
2026-04-27 05:42 -33.02989 150.60770 25894 ft 261 kts 346°
2026-04-27 05:42 -33.01223 150.60248 26077 ft 262 kts 346°
2026-04-27 05:42 -32.99452 150.59725 26227 ft 265 kts 346°
2026-04-27 05:43 -32.97637 150.59190 26231 ft 272 kts 346°
2026-04-27 05:43 -32.95789 150.58645 26232 ft 275 kts 346°
2026-04-27 05:43 -32.93925 150.58096 26223 ft 277 kts 346°
2026-04-27 05:43 -32.92048 150.57542 26234 ft 279 kts 346°
2026-04-27 05:44 -32.90162 150.56986 26235 ft 280 kts 346°
2026-04-27 05:44 -32.88267 150.56428 26236 ft 281 kts 346°
2026-04-27 05:44 -32.86366 150.55869 26235 ft 282 kts 346°
2026-04-27 05:44 -32.84462 150.55308 26235 ft 282 kts 346°
2026-04-27 05:45 -32.82555 150.54747 26232 ft 283 kts 346°
2026-04-27 05:45 -32.80642 150.54184 26233 ft 283 kts 346°
2026-04-27 05:45 -32.78727 150.53622 26229 ft 284 kts 346°
2026-04-27 05:45 -32.76810 150.53058 26226 ft 284 kts 346°
2026-04-27 05:46 -32.74892 150.52495 26230 ft 284 kts 346°
2026-04-27 05:46 -32.72974 150.51932 26230 ft 284 kts 346°
2026-04-27 05:46 -32.71057 150.51370 26228 ft 284 kts 346°
2026-04-27 05:46 -32.69164 150.50814 26225 ft 284 kts 346°
2026-04-27 05:47 -32.67249 150.50253 26225 ft 284 kts 346°
2026-04-27 05:47 -32.65308 150.49684 26223 ft 284 kts 346°
2026-04-27 05:47 -32.63418 150.49131 26223 ft 283 kts 346°
2026-04-27 05:47 -32.61503 150.48570 26225 ft 283 kts 346°
2026-04-27 05:48 -32.59589 150.48010 26225 ft 283 kts 346°
2026-04-27 05:48 -32.57666 150.47520 26218 ft 282 kts 354°
2026-04-27 05:48 -32.55721 150.47746 26207 ft 281 kts 17°
2026-04-27 05:48 -32.53958 150.48716 26208 ft 279 kts 30°
2026-04-27 05:49 -32.52277 150.49872 26216 ft 279 kts 32°
2026-04-27 05:49 -32.50603 150.51043 26213 ft 280 kts 32°
2026-04-27 05:49 -32.48919 150.52202 26213 ft 280 kts 32°
2026-04-27 05:49 -32.47232 150.53351 26212 ft 280 kts 31°
2026-04-27 05:50 -32.45543 150.54503 26208 ft 280 kts 32°
2026-04-27 05:50 -32.43858 150.55656 26210 ft 280 kts 31°
2026-04-27 05:50 -32.42172 150.56809 26213 ft 280 kts 32°
2026-04-27 05:50 -32.40485 150.57961 26206 ft 280 kts 32°
2026-04-27 05:51 -32.38799 150.59111 26211 ft 280 kts 31°
2026-04-27 05:51 -32.37114 150.60260 26207 ft 280 kts 32°
2026-04-27 05:51 -32.35429 150.61409 26206 ft 280 kts 32°
2026-04-27 05:51 -32.33741 150.62560 26205 ft 280 kts 32°
2026-04-27 05:52 -32.32022 150.63732 25919 ft 289 kts 31°
2026-04-27 05:52 -32.30272 150.64924 25637 ft 291 kts 31°
2026-04-27 05:52 -32.28512 150.66122 25346 ft 293 kts 31°
2026-04-27 05:52 -32.26746 150.67323 25060 ft 291 kts 32°
2026-04-27 05:53 -32.25006 150.68505 24777 ft 286 kts 32°
2026-04-27 05:53 -32.23292 150.69669 24495 ft 281 kts 31°
2026-04-27 05:53 -32.21618 150.70807 24214 ft 276 kts 32°
2026-04-27 05:53 -32.19966 150.71928 23943 ft 272 kts 32°
2026-04-27 05:54 -32.18333 150.73035 23656 ft 269 kts 31°
2026-04-27 05:54 -32.16719 150.74131 23318 ft 267 kts 32°
2026-04-27 05:54 -32.15119 150.75217 22997 ft 265 kts 32°
2026-04-27 05:54 -32.13525 150.76297 22677 ft 263 kts 32°
2026-04-27 05:55 -32.11963 150.77356 22366 ft 262 kts 32°
2026-04-27 05:55 -32.10388 150.78424 22056 ft 261 kts 32°
2026-04-27 05:55 -32.08821 150.79484 21748 ft 259 kts 32°
2026-04-27 05:55 -32.07262 150.80539 21440 ft 258 kts 32°
2026-04-27 05:56 -32.05705 150.81592 21139 ft 258 kts 32°
2026-04-27 05:56 -32.04142 150.82627 20840 ft 257 kts 28°
2026-04-27 05:56 -32.02404 150.83124 20555 ft 260 kts
2026-04-27 05:56 -32.00584 150.83159 20260 ft 264 kts
2026-04-27 05:57 -31.98729 150.83167 19975 ft 268 kts
2026-04-27 05:57 -31.96858 150.83200 19690 ft 270 kts
2026-04-27 05:57 -31.94980 150.83242 19405 ft 270 kts
2026-04-27 05:57 -31.93098 150.83276 19122 ft 270 kts
2026-04-27 05:58 -31.91230 150.83102 18842 ft 270 kts 351°
2026-04-27 05:58 -31.89397 150.82620 18606 ft 269 kts 349°
2026-04-27 05:58 -31.87561 150.82140 18356 ft 272 kts 350°
2026-04-27 05:58 -31.85693 150.81687 18089 ft 275 kts 351°
2026-04-27 05:59 -31.83811 150.81233 17828 ft 278 kts 351°
2026-04-27 05:59 -31.81912 150.80764 17563 ft 280 kts 350°
2026-04-27 05:59 -31.80004 150.80289 17301 ft 280 kts 350°
2026-04-27 05:59 -31.78099 150.79817 17038 ft 280 kts 350°
2026-04-27 06:00 -31.74289 150.78875 16530 ft 280 kts 350°
2026-04-27 06:00 -31.72386 150.78406 16277 ft 279 kts 350°
2026-04-27 06:00 -31.70483 150.77936 16027 ft 279 kts 350°
2026-04-27 06:01 -31.68585 150.77466 15774 ft 279 kts 350°
2026-04-27 06:01 -31.66686 150.76999 15529 ft 279 kts 350°
2026-04-27 06:01 -31.64790 150.76532 15284 ft 279 kts 349°
2026-04-27 06:01 -31.62893 150.76063 15044 ft 279 kts 349°
2026-04-27 06:02 -31.60996 150.75596 14808 ft 278 kts 349°
2026-04-27 06:02 -31.59103 150.75130 14568 ft 278 kts 349°
2026-04-27 06:02 -31.57208 150.74663 14333 ft 278 kts 349°
2026-04-27 06:02 -31.55313 150.74196 14097 ft 278 kts 349°
2026-04-27 06:03 -31.53416 150.73730 13844 ft 278 kts 349°
2026-04-27 06:03 -31.51525 150.73264 13581 ft 278 kts 349°
2026-04-27 06:03 -31.49640 150.72801 13321 ft 276 kts 349°
2026-04-27 06:03 -31.47764 150.72340 13056 ft 275 kts 349°
2026-04-27 06:04 -31.45898 150.71882 12798 ft 274 kts 349°
2026-04-27 06:04 -31.44035 150.71425 12546 ft 273 kts 349°
2026-04-27 06:04 -31.42178 150.70969 12292 ft 273 kts 349°
2026-04-27 06:04 -31.40321 150.70513 12041 ft 272 kts 349°
2026-04-27 06:05 -31.38493 150.70065 11793 ft 272 kts 349°
2026-04-27 06:05 -31.36644 150.69611 11548 ft 271 kts 349°
2026-04-27 06:05 -31.34798 150.69159 11306 ft 271 kts 349°
2026-04-27 06:05 -31.32954 150.68708 11062 ft 271 kts 349°
2026-04-27 06:06 -31.31113 150.68258 10823 ft 270 kts 349°
2026-04-27 06:06 -31.29273 150.67808 10587 ft 269 kts 349°
2026-04-27 06:06 -31.27443 150.67359 10346 ft 268 kts 349°
2026-04-27 06:06 -31.25621 150.66913 10107 ft 268 kts 349°
2026-04-27 06:07 -31.23797 150.66466 9825 ft 268 kts 349°
2026-04-27 06:07 -31.21972 150.66021 9534 ft 268 kts 349°
2026-04-27 06:07 -31.20152 150.65578 9258 ft 267 kts 349°
2026-04-27 06:07 -31.18335 150.65135 8979 ft 266 kts 349°
2026-04-27 06:08 -31.16523 150.64691 8702 ft 266 kts 349°
2026-04-27 06:08 -31.14712 150.64250 8426 ft 266 kts 349°
2026-04-27 06:08 -31.12904 150.63809 8153 ft 265 kts 349°
2026-04-27 06:08 -31.11107 150.63371 7881 ft 262 kts 349°
2026-04-27 06:09 -31.09331 150.62938 7614 ft 260 kts 349°
2026-04-27 06:09 -31.07570 150.62509 7342 ft 258 kts 349°
2026-04-27 06:09 -31.05820 150.62083 7073 ft 256 kts 349°
2026-04-27 06:09 -31.04084 150.61660 6812 ft 254 kts 349°
2026-04-27 06:10 -31.02355 150.61244 6555 ft 252 kts 350°
2026-04-27 06:10 -31.01183 150.61159 6350 ft 250 kts
2026-04-27 06:10 -30.99538 150.61726 6049 ft 246 kts 29°
2026-04-27 06:10 -30.98248 150.62943 5762 ft 228 kts 51°
2026-04-27 06:11 -30.97476 150.64418 5422 ft 207 kts 65°
2026-04-27 06:11 -30.96843 150.65873 5075 ft 196 kts 65°
2026-04-27 06:11 -30.96232 150.67275 4722 ft 188 kts 66°
2026-04-27 06:11 -30.95928 150.68597 4597 ft 155 kts 92°
2026-04-27 06:12 -30.96111 150.69721 4467 ft 132 kts 115°
2026-04-27 06:12 -30.96570 150.70546 4313 ft 111 kts 135°
2026-04-27 06:12 -30.97072 150.71164 4157 ft 101 kts 134°
2026-04-27 06:12 -30.97533 150.71742 4001 ft 94 kts 135°
2026-04-27 06:13 -30.97974 150.72292 3851 ft 91 kts 135°
2026-04-27 06:13 -30.98396 150.72818 3713 ft 88 kts 134°
2026-04-27 06:13 -30.98822 150.73349 3565 ft 89 kts 136°
2026-04-27 06:13 -30.99239 150.73870 3450 ft 88 kts 135°
2026-04-27 06:14 -30.99671 150.74409 3351 ft 94 kts 136°
2026-04-27 06:14 -31.00127 150.74978 3241 ft 96 kts 136°
2026-04-27 06:14 -31.00575 150.75538 3142 ft 95 kts 137°
2026-04-27 06:14 -31.01030 150.76105 3051 ft 97 kts 137°
2026-04-27 06:15 -31.01501 150.76691 2934 ft 100 kts 136°
2026-04-27 06:15 -31.01977 150.77285 2813 ft 100 kts 136°
2026-04-27 06:15 -31.02446 150.77871 2687 ft 97 kts 136°
2026-04-27 06:15 -31.02900 150.78438 2559 ft 96 kts 137°
2026-04-27 06:16 -31.03353 150.79004 2438 ft 94 kts 137°
2026-04-27 06:16 -31.03798 150.79561 2325 ft 95 kts 136°
2026-04-27 06:16 -31.04251 150.80126 2194 ft 96 kts 135°
2026-04-27 06:16 -31.04706 150.80694 2068 ft 95 kts 136°
2026-04-27 06:17 -31.05152 150.81259 1902 ft 95 kts 134°
2026-04-27 06:17 -31.05579 150.81814 1785 ft 86 kts 137°
2026-04-27 06:17 -31.05977 150.82313 1626 ft 81 kts 136°
2026-04-27 06:17 -31.06363 150.82783 1533 ft 81 kts 139°
2026-04-27 06:18 -31.06752 150.83264 1415 ft 81 kts 139°
2026-04-27 06:18 -31.07134 150.83735 1313 ft 79 kts 139°
2026-04-27 06:18 -31.07464 150.84146 1295 ft 55 kts 133°
2026-04-27 06:18 -31.07649 150.84380 1301 ft 32 kts 133°
2026-04-27 06:19 -31.07757 150.84511 1303 ft 18 kts 147°
2026-04-27 06:19 -31.07842 150.84457 1303 ft 16 kts 225°
2026-04-27 06:19 -31.07918 150.84418 1305 ft 11 kts 142°
2026-04-27 06:19 -31.07961 150.84471 1307 ft 8 kts 131°
2026-04-27 06:20 -31.07996 150.84515 1308 ft 8 kts 133°
2026-04-27 06:20 -31.08034 150.84563 1310 ft 8 kts 131°
2026-04-27 06:20 -31.08079 150.84620 1312 ft 12 kts 134°
2026-04-27 06:20 -31.08143 150.84699 1315 ft 14 kts 133°
2026-04-27 06:21 -31.08212 150.84785 1316 ft 15 kts 133°
2026-04-27 06:21 -31.08255 150.84811 1316 ft 4 kts 204°
2026-04-27 06:21 -31.08292 150.84773 1317 ft 10 kts 221°
2026-04-27 06:21 -31.08365 150.84735 1319 ft 12 kts 188°
2026-04-27 06:22 -31.08406 150.84678 1321 ft 8 kts 198°
2026-04-27 06:22 -31.08439 150.84678 1323 ft 1 kts 111°
2026-04-27 06:22 -31.08440 150.84695 1323 ft 0 kts 96°
2026-04-27 06:22 -31.08441 150.84698 1323 ft 0 kts 97°